Regional Weather Roundup
Issued by NWS Newport/Morehead, NC

Home | Current Version | Previous Version | Text Only | Print | Product List | Glossary On
Versions: 1 2 3 4 5 6 7 8 9 10 11 12 13 14 15 16 17 18 19 20 21 22 23 24 25 26 27 28 29 30 31 32 33 34 35 36 37 38 39 40 41 42 43 44 45 46 47 48 49 50
000
ASUS42 KMHX 011222
RWRMHX
WEATHER ROUNDUP FOR EASTERN NORTH CAROLINA
NATIONAL WEATHER SERVICE NEWPORT/MOREHEAD CITY NC
700 AM EST SUN FEB 01 2015

NOTE: "FAIR" INDICATES FEW OR NO CLOUDS BELOW 12,000 FEET
WITH NO SIGNIFICANT WEATHER AND/OR OBSTRUCTIONS TO VISIBILITY

NCZ015>017-031-032-045>047-102-103-011300-
NORTH COAST

CITY           SKY/WX    TMP DP  RH WIND       PRES   REMARKS
EDENTON        PTCLDY    37  22  54 CALM      30.29F
ELIZABETH CITY PTCLDY    30  20  66 CALM      30.30R
KITTY HAWK     SUNNY     33  26  75 W3        30.28S
MANTEO         CLEAR     36  27  69 SW3       30.30S

$$

NCZ045>047-081-094-103-104-011300-
CENTRAL COAST

CITY           SKY/WX    TMP DP  RH WIND       PRES   REMARKS
FRISCO         CLEAR     40  30  67 W7        30.31S
SWANQUARTER      N/A     37 N/A N/A W2        30.27S

$$

NCZ095-097-098-100-101-011300-
SOUTHERN COAST

CITY           SKY/WX    TMP DP  RH WIND       PRES   REMARKS
BEAUFORT       MOCLDY    42  31  64 W6        30.33R
CEDAR ISLAND     N/A     37 N/A N/A SW5       30.36S
JACKSONVILLE   CLOUDY    37  27  67 SW3       30.32S
PINEY ISLAND     N/A    N/A N/A N/A MISG      30.32R
WILMINGTON     CLOUDY    37  33  85 CALM      30.32R


$$

NCZ011>013-027>030-043-044-078>080-089-090>093-098-011300-
COASTAL PLAIN

CITY           SKY/WX    TMP DP  RH WIND       PRES   REMARKS
AHOSKIE        MOCLDY    29  21  71 CALM      30.30S
CLINTON        CLOUDY    37  28  70 CALM      30.30F
ELIZABETHTOWN  CLOUDY    39  28  63 S3        30.29S
GOLDSBORO      CLOUDY    37  28  68 CALM      30.28S
GREENVILLE     CLOUDY    36  23  60 CALM      30.30S
HAVELOCK       MOCLDY    36  26  67 SW7       30.33S
KENANSVILLE    CLOUDY    35  27  74 CALM      30.31F
KINSTON        CLOUDY    36  25  64 S6        30.29F
NEW BERN       MOCLDY    37  24  59 SW7       30.33R
RICHLANDS      CLOUDY    34  27  75 CALM      30.31F
ROCKY MOUNT    CLOUDY    34  24  67 S3        30.29R
WASHINGTON     PTCLDY    34  21  60 CALM      30.30F
WHITEVILLE     CLOUDY    38  30  72 CALM      30.29F

$$

AMZ130-135-150-152-154-156-158-170-250-252-270-ANZ085-086-088-633-658-670-011300-
MARINE OBSERVATIONS

STATION/POSITION TIME  TEMP    WIND        PRES    WAVE   SWELL
                       AIR SEA DIR/SP/G            HT/PER HT/PER
                 (UTC) (F)     (DEG/KT/KT) (MB)    (FT/S) (FT/S)
CHESAPEAKE LIGHT 1200   38      70/ 14/ 15 1026.4
64 E VA BEACH    1200   42 48  350/  4/  6 1025.8    4/ 7   3/ 7
DUCK             1200   37 41  240/  6/  8 1024.9
2 E DUCK         1200      40                N/A     3/ 7
10 NE DUCK       1200      43                N/A     3/ 8
OREGON INLET     1200   37 37  240/  7/  8 1026.0
13E OREGON INLT  1200      43                N/A     5/10   2/11
HATTERAS CG      1200   43 41  250/  9/ 13 1026.8
DIAMOND BUOY     1200   52 71  270/ 16/ 19 1026.2    6/10   7/10
17 S OCRACOKE    NOT AVBL
CAPE LOOKOUT     1200   47     270/  7/  9 1026.5
BEAUFORT LAB     1200   43 46  270/  2/  5 1025.8
27 SE WRIGHTSVLE NOT AVBL
5 SE WRIGHTSVLE  1200   48 51  260/  8/ 10 1026.4
225 S CAPE HAT   1144   57 69   10/  4/ 10 1027.6    9/11   8/11
41 SE CHARLESTON 1200   58 70  140/  4/ 10 1026.1    4/ 8   3/ 8

$$


USA.gov is the U.S. government's official web portal to all federal, state and local government web resources and services.